QPF
0.00 0.00 0.00 0.00 0.00 0.00 0.00 0.00 0.00 0.00 0.00 0.00 0.00 0.00 0.00 0.00 0.00 0.01 0.01 0.01 0.00 0.00 0.00 0.00 0.00 0.00 0.00 0.00 0.00 0.00 0.00 0.00 0.00 0.00 0.00 0.00 0.00 0.00 0.00 0.00 0.00 0.00 0.00
0.00 0.00 0.00 0.00 0.00 0.00 0.00 0.00 0.00 0.00 0.00 0.00 0.00 0.00 0.00 0.00 0.00 0.01 0.01 0.01 0.00 0.00 0.00 0.00 0.00 0.00 0.00 0.00 0.00 0.00 0.00 0.00 0.00 0.00 0.00 0.00 0.00 0.00 0.00 0.00 0.00 0.00 0.00
0.00 0.00 0.00 0.00 0.00 0.00 0.00 0.00 0.00 0.00 0.00 0.00 0.00 0.00 0.00 0.00 0.00 0.00 0.00 0.00 0.00 0.00 0.00 0.00 0.00 0.00 0.00 0.00 0.00 0.00 0.00 0.00 0.00 0.00 0.00 0.00 0.00 0.00 0.00 0.00 0.00 0.00 0.00
0.00 0.00 0.00 0.00 0.00 0.00 0.00 0.00 0.00 0.00 0.00 0.00 0.00 0.00 0.00 0.00 0.00 0.00 0.00 0.00 0.00 0.00 0.00 0.00 0.00 0.00 0.00 0.00 0.00 0.00 0.00 0.00 0.00 0.00 0.00 0.00 0.00 0.00 0.00 0.00 0.00 0.00 0.00
0.00 0.00 0.00 0.00 0.00 0.00 0.00 0.00 0.00 0.00 0.00 0.00 0.00 0.00 0.00 0.00 0.00 0.00 0.00 0.00 0.00 0.00 0.00 0.00 0.00 0.00 0.00 0.00 0.00 0.00 0.00 0.00 0.00 0.00 0.00 0.00 0.00 0.00 0.00 0.00 0.00 0.00 0.00
0.00 0.00 0.00 0.00 0.00 0.00 0.00 0.00 0.00 0.00 0.00 0.00 0.00 0.00 0.00 0.00 0.00 0.00 0.00 0.00 0.00 0.00 0.00 0.00 0.00 0.00 0.00 0.00 0.00 0.00 0.00 0.00 0.00 0.00 0.00 0.00 0.00 0.00 0.00 0.00 0.00 0.00 0.00
0.00 0.00 0.00 0.00 0.00 0.00 0.00 0.00 0.00 0.00 0.00 0.00 0.00 0.00 0.00 0.00 0.00 0.00 0.00 0.00 0.00 0.00 0.00 0.00 0.00 0.00 0.00 0.00 0.00 0.00 0.00 0.00 0.00 0.00 0.00 0.00 0.00 0.00 0.00 0.00 0.00 0.00 0.00
0.00 0.00 0.00 0.00 0.00 0.00 0.00 0.00 0.00 0.00 0.00 0.00 0.00 0.00 0.00 0.00 0.00 0.00 0.00 0.00 0.00 0.00 0.00 0.00 0.00 0.00 0.00 0.00 0.00 0.00 0.00 0.00 0.00 0.00 0.00 0.00 0.00 0.00 0.00 0.00 0.00 0.00 0.00
0.00 0.00 0.00 0.00 0.00 0.00 0.00 0.00 0.00 0.00 0.00 0.00 0.00 0.00 0.00 0.00 0.00 0.00 0.00 0.00 0.00 0.00 0.00 0.00 0.00 0.00 0.00 0.00 0.00 0.00 0.00 0.00 0.00 0.00 0.00 0.00 0.00 0.00 0.00 0.00 0.00 0.00 0.00
0.00 0.00 0.00 0.00 0.00 0.00 0.00 0.00 0.00 0.00 0.00 0.00 0.00 0.00 0.00 0.00 0.00 0.00 0.00 0.00 0.00 0.00 0.00 0.00 0.00 0.00 0.00 0.00 0.00 0.00 0.00 0.00 0.00 0.00 0.00 0.00 0.00 0.00 0.00 0.00 0.00 0.00 0.00
0.00 0.00 0.00 0.00 0.00 0.00 0.00 0.00 0.00 0.00 0.00 0.00 0.00 0.00 0.00 0.00 0.00 0.00 0.00 0.00 0.00 0.00 0.00 0.00 0.00 0.00 0.00 0.00 0.00 0.00 0.00 0.00 0.00 0.00 0.00 0.00 0.00 0.00 0.00 0.00 0.00 0.00 0.00
0.00 0.00 0.00 0.00 0.00 0.00 0.00 0.00 0.00 0.00 0.00 0.00 0.00 0.00 0.00 0.00 0.00 0.00 0.00 0.00 0.00 0.00 0.00 0.00 0.00 0.00 0.00 0.00 0.00 0.00 0.00 0.00 0.00 0.00 0.00 0.00 0.00 0.00 0.00 0.00 0.00 0.00 0.00
0.00 0.00 0.00 0.00 0.00 0.00 0.00 0.00 0.00 0.00 0.00 0.00 0.00 0.00 0.00 0.00 0.00 0.00 0.00 0.00 0.00 0.00 0.00 0.00 0.00 0.00 0.00 0.00 0.00 0.00 0.00 0.00 0.00 0.00 0.00 0.00 0.00 0.00 0.00 0.00 0.00 0.00 0.00
0.00 0.00 0.00 0.00 0.00 0.00 0.00 0.00 0.00 0.00 0.00 0.00 0.00 0.00 0.00 0.00 0.00 0.00 0.00 0.00 0.00 0.00 0.00 0.00 0.00 0.00 0.00 0.00 0.00 0.00 0.00 0.00 0.00 0.00 0.00 0.00 0.00 0.00 0.00 0.00 0.00 0.00 0.00
0.00 0.00 0.00 0.00 0.00 0.01 0.00 0.00 0.00 0.00 0.00 0.00 0.00 0.00 0.00 0.00 0.00 0.00 0.00 0.00 0.00 0.00 0.00 0.00 0.00 0.00 0.00 0.00 0.00 0.00 0.00 0.00 0.00 0.00 0.00 0.00 0.00 0.00 0.00 0.00 0.00 0.00 0.00
0.01 0.01 0.01 0.01 0.00 0.01 0.00 0.00 0.00 0.00 0.00 0.00 0.00 0.00 0.00 0.00 0.00 0.00 0.00 0.00 0.01 0.00 0.00 0.00 0.00 0.00 0.00 0.00 0.00 0.00 0.00 0.00 0.00 0.00 0.00 0.00 0.00 0.00 0.00 0.00 0.00 0.00 0.00
0.01 0.02 0.02 0.01 0.00 0.01 0.00 0.00 0.00 0.00 0.00 0.00 0.00 0.00 0.00 0.00 0.00 0.00 0.00 0.01 0.00 0.00 0.00 0.00 0.00 0.00 0.00 0.00 0.00 0.00 0.00 0.00 0.00 0.00 0.00 0.00 0.00 0.00 0.00 0.00 0.00 0.00 0.00
0.02 0.09 0.10 0.05 0.07 0.07 0.03 0.03 0.03 0.00 0.00 0.00 0.00 0.00 0.00 0.00 0.00 0.00 0.00 0.00 0.00 0.00 0.00 0.00 0.00 0.00 0.00 0.00 0.00 0.00 0.00 0.00 0.00 0.00 0.00 0.00 0.00 0.00 0.00 0.00 0.00 0.00 0.00
0.18 0.20 0.25 0.28 0.31 0.33 0.19 0.06 0.03 0.00 0.00 0.00 0.00 0.00 0.00 0.00 0.00 0.00 0.00 0.00 0.00 0.00 0.00 0.00 0.00 0.00 0.00 0.00 0.00 0.00 0.00 0.00 0.00 0.00 0.00 0.00 0.00 0.00 0.00 0.00 0.00 0.00 0.00
0.32 0.40 0.59 0.63 0.52 0.42 0.29 0.20 0.14 0.08 0.01 0.01 0.00 0.00 0.00 0.00 0.00 0.00 0.00 0.00 0.00 0.00 0.00 0.00 0.00 0.00 0.00 0.00 0.00 0.00 0.00 0.00 0.00 0.00 0.00 0.00 0.00 0.00 0.00 0.00 0.00 0.00 0.00
0.17 0.21 0.22 0.28 0.37 0.59 0.56 0.47 0.44 0.28 0.11 0.05 0.01 0.00 0.00 0.00 0.00 0.00 0.00 0.00 0.00 0.00 0.00 0.00 0.00 0.01 0.01 0.01 0.00 0.00 0.00 0.00 0.00 0.00 0.00 0.00 0.00 0.00 0.00 0.00 0.00 0.00 0.00
0.02 0.06 0.10 0.17 0.24 0.22 0.19 0.26 0.41 0.36 0.13 0.02 0.00 0.01 0.02 0.02 0.01 0.01 0.00 0.00 0.00 0.00 0.00 0.00 0.00 0.03 0.09 0.05 0.01 0.00 0.00 0.00 0.00 0.00 0.00 0.00 0.00 0.00 0.00 0.00 0.00 0.00 0.00
0.02 0.04 0.06 0.07 0.06 0.08 0.12 0.09 0.16 0.21 0.12 0.03 0.01 0.00 0.00 0.00 0.00 0.00 0.01 0.00 0.00 0.00 0.00 0.01 0.01 0.01 0.05 0.07 0.02 0.00 0.00 0.00 0.00 0.00 0.00 0.00 0.00 0.00 0.00 0.00 0.00 0.00 0.00
0.01 0.02 0.00 0.00 0.01 0.00 0.01 0.04 0.08 0.11 0.10 0.05 0.01 0.01 0.00 0.00 0.00 0.00 0.01 0.00 0.00 0.00 0.00 0.00 0.01 0.01 0.02 0.07 0.04 0.00 0.00 0.00 0.00 0.00 0.00 0.00 0.00 0.00 0.00 0.00 0.00 0.00 0.00
0.00 0.00 0.00 0.00 0.00 0.00 0.00 0.02 0.05 0.06 0.04 0.02 0.02 0.01 0.02 0.01 0.01 0.00 0.01 0.00 0.00 0.00 0.00 0.00 0.00 0.00 0.00 0.02 0.06 0.04 0.00 0.00 0.00 0.00 0.00 0.00 0.00 0.00 0.00 0.00 0.00 0.00 0.00
0.00 0.00 0.00 0.00 0.00 0.00 0.00 0.00 0.00 0.01 0.02 0.03 0.03 0.02 0.01 0.00 0.00 0.01 0.01 0.00 0.00 0.00 0.00 0.00 0.00 0.00 0.00 0.01 0.04 0.08 0.02 0.00 0.00 0.00 0.00 0.00 0.00 0.00 0.00 0.00 0.00 0.00 0.00
MSLP
1010.76 1011.39 1012.01 1012.54 1012.96 1013.35 1013.60 1013.83 1014.06 1014.15 1013.99 1014.07 1014.11 1014.13 1014.14 1014.28 1014.22 1014.39 1014.75 1015.10 1015.32 1015.66 1015.87 1016.37 1016.71 1016.67 1016.75 1016.68 1016.62 1016.64 1017.02 1017.16 1017.79 1017.97 1017.64 1017.61 1017.39 1016.95 1017.01 1017.33 1017.43 1017.61 1017.67
1009.91 1010.70 1011.33 1011.83 1012.30 1012.83 1013.19 1013.43 1013.61 1013.81 1013.75 1013.88 1014.02 1014.10 1014.19 1014.23 1014.18 1014.45 1014.79 1015.10 1015.49 1015.91 1016.45 1016.71 1017.13 1017.13 1017.33 1017.37 1017.30 1017.44 1017.40 1017.28 1017.61 1018.49 1018.54 1018.30 1017.79 1017.39 1017.23 1017.44 1017.39 1017.55 1017.74
1009.25 1010.07 1010.74 1011.42 1011.82 1012.27 1012.64 1013.00 1013.30 1013.48 1013.48 1013.67 1013.82 1013.94 1014.05 1014.11 1014.42 1014.68 1014.83 1015.39 1015.92 1016.36 1016.77 1017.11 1017.49 1017.59 1017.92 1018.04 1018.07 1018.18 1018.05 1018.01 1018.30 1018.79 1019.22 1018.75 1018.25 1017.97 1017.76 1017.55 1017.48 1017.46 1017.38
1008.57 1009.42 1010.13 1010.74 1011.20 1011.70 1012.15 1012.61 1013.02 1013.22 1013.29 1013.44 1013.59 1013.72 1013.83 1013.91 1014.50 1014.82 1015.18 1015.77 1016.43 1016.92 1017.31 1017.61 1017.77 1017.88 1018.11 1018.42 1018.63 1018.91 1018.85 1018.93 1019.06 1019.22 1019.51 1019.41 1019.04 1018.34 1017.97 1017.69 1017.37 1017.34 1017.46
1007.90 1008.85 1009.48 1010.01 1010.63 1011.17 1011.75 1012.15 1012.57 1012.84 1013.01 1013.14 1013.46 1013.57 1013.65 1013.80 1014.45 1014.86 1015.39 1015.97 1016.70 1017.31 1017.76 1018.03 1018.16 1018.15 1018.29 1018.49 1018.80 1019.17 1019.26 1019.52 1019.67 1019.83 1020.06 1019.85 1019.53 1018.94 1018.55 1017.93 1017.52 1017.25 1017.50
1007.23 1008.11 1008.92 1009.61 1010.16 1010.78 1011.30 1011.75 1012.18 1012.47 1012.74 1012.87 1013.23 1013.37 1013.54 1013.86 1014.25 1014.83 1015.36 1016.17 1016.81 1017.41 1018.12 1018.47 1018.65 1018.60 1018.80 1018.87 1019.05 1019.27 1019.31 1019.72 1019.91 1020.24 1020.34 1020.11 1019.95 1019.45 1018.75 1018.23 1017.71 1017.45 1017.82
1006.68 1007.61 1008.33 1009.06 1009.73 1010.35 1010.83 1011.38 1011.87 1012.16 1012.42 1012.67 1012.92 1013.12 1013.74 1014.09 1014.52 1015.00 1015.54 1016.25 1016.91 1017.56 1018.08 1018.53 1018.92 1019.15 1019.08 1019.25 1019.39 1019.63 1019.79 1019.75 1019.62 1020.02 1020.34 1020.07 1019.98 1019.70 1019.12 1018.36 1017.79 1017.80 1018.29
1006.34 1007.10 1007.80 1008.53 1009.31 1009.95 1010.54 1011.08 1011.47 1011.72 1012.05 1012.39 1012.61 1013.12 1013.79 1014.34 1014.79 1015.25 1015.80 1016.30 1017.00 1017.63 1018.09 1018.43 1018.97 1019.49 1019.43 1019.42 1019.49 1019.81 1020.00 1020.07 1019.82 1020.05 1020.32 1020.20 1019.76 1019.31 1018.96 1018.57 1018.17 1018.00 1018.02
1005.99 1006.59 1007.27 1007.97 1008.77 1009.47 1010.06 1010.59 1010.96 1011.35 1011.70 1011.94 1012.27 1013.07 1013.63 1014.61 1014.94 1015.44 1015.86 1016.59 1017.17 1017.68 1018.07 1018.48 1018.87 1019.28 1019.40 1019.40 1019.62 1019.90 1020.09 1020.22 1019.98 1020.04 1020.17 1020.08 1019.68 1019.25 1019.15 1018.67 1018.80 1018.69 1018.65
1005.67 1006.22 1006.81 1007.46 1008.19 1008.85 1009.40 1009.96 1010.32 1010.75 1011.19 1011.51 1012.10 1012.74 1013.41 1014.35 1014.95 1015.32 1015.84 1016.53 1017.35 1017.82 1018.20 1018.49 1018.76 1019.09 1019.26 1019.39 1019.52 1019.73 1020.17 1020.46 1020.43 1020.45 1020.49 1020.46 1020.18 1019.83 1019.56 1019.77 1019.86 1019.41 1019.11
1005.37 1005.89 1006.46 1006.91 1007.59 1008.21 1008.87 1009.42 1009.84 1010.39 1010.85 1011.35 1011.95 1012.67 1013.32 1013.89 1014.70 1015.19 1015.74 1016.51 1017.17 1017.87 1018.43 1018.90 1018.88 1019.19 1019.36 1019.41 1019.58 1019.86 1020.10 1020.20 1020.31 1020.51 1020.59 1020.75 1020.83 1020.64 1020.30 1020.34 1020.31 1020.05 1019.87
1005.09 1005.69 1006.15 1006.60 1007.09 1007.71 1008.34 1008.99 1009.49 1010.03 1010.57 1011.20 1011.94 1012.75 1013.35 1013.90 1014.43 1015.23 1015.72 1016.19 1016.90 1017.69 1018.63 1018.92 1019.03 1019.27 1019.51 1019.55 1019.75 1020.00 1020.08 1020.22 1020.42 1020.57 1020.60 1020.85 1021.15 1021.20 1021.01 1020.90 1020.81 1020.69 1020.46
1005.09 1005.49 1005.91 1006.40 1006.85 1007.31 1008.01 1008.70 1009.31 1009.74 1010.25 1010.91 1011.61 1012.32 1013.21 1013.96 1014.63 1015.13 1015.53 1016.15 1016.81 1017.47 1018.04 1018.83 1019.32 1019.38 1019.51 1019.67 1019.93 1020.04 1020.09 1020.31 1020.61 1020.84 1020.91 1020.75 1020.81 1021.22 1021.13 1021.19 1021.21 1021.15 1021.11
1005.37 1005.49 1005.66 1006.10 1006.66 1007.17 1007.75 1008.45 1009.01 1009.32 1009.63 1010.23 1011.04 1011.95 1012.67 1013.61 1014.33 1015.20 1015.82 1016.27 1016.79 1017.32 1018.08 1018.75 1019.50 1019.82 1019.76 1019.73 1019.92 1019.99 1020.07 1020.18 1020.37 1020.81 1020.96 1020.67 1021.04 1021.41 1021.39 1021.30 1021.46 1021.47 1021.54
1005.57 1005.59 1005.75 1006.07 1006.50 1007.01 1007.64 1008.22 1008.56 1008.37 1008.58 1009.19 1010.23 1011.08 1011.90 1012.87 1013.63 1014.53 1015.37 1016.09 1016.68 1017.25 1018.24 1019.01 1019.65 1020.17 1020.36 1020.28 1020.09 1020.00 1020.13 1020.24 1020.47 1020.50 1020.87 1021.02 1020.99 1021.04 1021.36 1021.35 1021.35 1021.47 1021.95
1006.14 1005.50 1005.51 1005.81 1006.27 1006.72 1007.63 1008.65 1008.95 1008.82 1008.71 1008.82 1009.47 1010.05 1011.06 1011.82 1012.91 1014.09 1014.99 1015.50 1016.15 1017.11 1018.09 1018.94 1019.47 1019.81 1020.17 1020.37 1020.30 1020.34 1020.17 1020.32 1020.59 1020.61 1020.76 1021.20 1021.53 1021.68 1021.75 1021.75 1021.73 1022.02 1022.35
1006.51 1006.07 1005.47 1005.66 1005.98 1006.53 1007.08 1007.57 1008.55 1009.50 1009.10 1008.96 1009.27 1009.75 1010.46 1011.43 1012.63 1013.80 1014.57 1015.47 1016.36 1016.85 1017.60 1018.42 1018.87 1019.33 1019.64 1019.89 1020.10 1020.13 1020.33 1020.16 1020.39 1020.66 1020.87 1021.06 1021.57 1021.82 1022.09 1022.36 1022.50 1022.69 1023.09
1006.99 1006.43 1006.18 1005.51 1005.34 1005.86 1006.45 1007.21 1007.82 1008.35 1009.05 1009.90 1010.32 1010.51 1010.93 1011.43 1012.46 1013.47 1014.69 1016.03 1017.17 1016.82 1017.19 1017.84 1018.38 1018.75 1018.98 1019.23 1019.47 1019.81 1019.94 1020.13 1020.31 1020.69 1020.89 1021.12 1021.48 1021.96 1022.51 1022.80 1022.92 1023.13 1023.49
1007.53 1007.07 1006.42 1005.93 1005.81 1005.78 1005.85 1006.37 1007.09 1007.77 1008.55 1009.79 1010.80 1011.54 1012.10 1012.43 1012.85 1013.27 1014.00 1014.69 1015.60 1016.22 1016.69 1017.13 1017.47 1017.86 1018.22 1018.37 1018.75 1019.06 1019.39 1019.95 1020.14 1020.51 1020.76 1021.00 1021.43 1021.97 1022.69 1022.87 1023.22 1023.53 1023.84
1007.90 1007.55 1007.35 1006.95 1006.96 1006.37 1005.70 1005.52 1006.04 1006.97 1008.46 1010.05 1010.66 1011.43 1012.55 1012.97 1013.76 1014.31 1013.80 1014.27 1014.81 1015.19 1015.43 1016.03 1016.44 1016.79 1017.22 1017.66 1018.23 1018.73 1019.21 1019.64 1020.02 1020.29 1020.69 1020.86 1021.24 1021.72 1022.53 1022.93 1023.21 1023.71 1024.14
1008.59 1007.31 1006.63 1006.88 1007.05 1004.97 1008.01 1007.09 1005.23 1008.47 1008.23 1010.24 1011.62 1011.81 1012.04 1012.55 1013.25 1013.58 1013.92 1013.93 1014.13 1014.90 1015.26 1015.57 1015.79 1016.30 1016.48 1016.99 1017.67 1018.30 1018.66 1019.16 1019.56 1019.96 1020.42 1020.73 1020.92 1021.58 1022.19 1022.67 1022.95 1023.42 1024.12
1009.78 1007.64 1006.79 1010.99 1009.99 1009.97 1009.71 1008.91 1009.08 1009.92 1010.08 1011.27 1012.27 1012.57 1012.68 1012.79 1013.33 1013.54 1013.96 1014.25 1014.36 1014.58 1014.90 1015.28 1015.57 1015.53 1015.65 1016.54 1017.32 1017.65 1018.06 1018.59 1019.05 1019.58 1020.06 1020.44 1020.80 1021.19 1021.78 1022.51 1022.80 1023.13 1023.75
1010.66 1009.37 1010.89 1011.22 1011.48 1011.84 1011.93 1012.08 1012.15 1011.61 1011.86 1012.27 1012.64 1012.49 1012.87 1013.47 1013.51 1013.89 1014.20 1014.29 1014.29 1014.37 1014.54 1015.03 1015.31 1015.70 1015.67 1015.57 1016.17 1016.70 1017.24 1017.74 1018.16 1018.80 1019.59 1020.00 1020.54 1020.75 1021.16 1022.06 1022.65 1023.07 1023.33
1012.02 1012.21 1012.40 1012.31 1012.20 1012.52 1012.97 1013.72 1014.09 1013.43 1013.05 1013.04 1012.57 1014.22 1013.51 1013.88 1013.92 1013.97 1014.33 1014.19 1014.04 1014.15 1014.24 1014.69 1015.08 1015.40 1015.35 1015.57 1015.69 1016.19 1016.60 1017.03 1017.41 1017.93 1018.67 1019.49 1020.02 1020.39 1020.62 1021.34 1022.20 1022.59 1022.87
1013.59 1013.46 1013.57 1013.56 1013.79 1014.19 1014.17 1014.85 1015.57 1014.97 1014.43 1012.51 1013.09 1014.53 1015.91 1015.65 1015.54 1014.96 1014.69 1014.27 1013.87 1013.98 1014.03 1014.16 1014.77 1014.92 1015.23 1015.46 1015.51 1015.62 1015.94 1016.55 1016.88 1017.25 1017.97 1018.77 1019.45 1019.98 1020.21 1020.60 1021.15 1021.93 1022.60
1014.49 1014.65 1014.83 1015.15 1015.42 1015.50 1015.49 1015.43 1015.37 1014.69 1014.34 1014.11 1016.83 1016.92 1016.76 1017.17 1017.33 1017.09 1016.49 1015.61 1014.62 1013.99 1013.98 1013.96 1014.25 1014.55 1014.86 1015.08 1015.21 1015.15 1015.68 1016.06 1016.50 1016.78 1017.17 1017.85 1018.62 1019.25 1019.74 1020.07 1020.47 1020.85 1021.42
Thickness
5842 5839 5836 5834 5833 5831 5829 5828 5826 5826 5826 5824 5823 5822 5820 5816 5815 5811 5804 5797 5789 5781 5774 5763 5752 5745 5735 5728 5720 5709 5695 5681 5661 5653 5649 5640 5633 5629 5623 5614 5607 5602 5596
5847 5843 5839 5838 5836 5833 5831 5831 5831 5827 5829 5826 5825 5822 5821 5819 5817 5810 5803 5797 5788 5779 5769 5761 5751 5744 5733 5724 5717 5705 5695 5684 5671 5652 5644 5636 5632 5627 5622 5615 5609 5600 5593
5850 5846 5842 5838 5837 5835 5834 5833 5832 5830 5829 5828 5826 5824 5822 5820 5815 5809 5804 5795 5786 5778 5768 5759 5748 5740 5730 5720 5711 5703 5693 5682 5669 5654 5641 5636 5629 5623 5618 5613 5607 5600 5593
5853 5848 5844 5841 5839 5838 5837 5834 5832 5831 5829 5828 5828 5827 5826 5823 5815 5810 5803 5794 5783 5774 5765 5756 5747 5738 5729 5718 5709 5698 5689 5678 5665 5651 5639 5632 5626 5623 5618 5613 5608 5601 5593
5855 5849 5847 5846 5843 5840 5837 5836 5834 5833 5831 5831 5828 5828 5828 5825 5818 5811 5803 5793 5782 5771 5762 5754 5746 5740 5731 5721 5709 5697 5688 5676 5663 5650 5639 5630 5624 5619 5614 5612 5606 5601 5593
5857 5852 5851 5847 5844 5840 5838 5837 5835 5833 5832 5832 5829 5829 5828 5825 5820 5813 5806 5793 5783 5772 5761 5752 5745 5738 5729 5720 5711 5701 5691 5678 5666 5652 5641 5634 5625 5619 5617 5611 5606 5602 5591
5859 5855 5851 5849 5844 5841 5840 5837 5835 5834 5833 5832 5831 5831 5826 5823 5818 5812 5805 5795 5784 5774 5764 5754 5746 5737 5729 5719 5711 5700 5691 5684 5676 5661 5646 5637 5626 5621 5617 5613 5610 5600 5587
5858 5855 5853 5849 5844 5842 5840 5837 5835 5835 5833 5832 5832 5830 5825 5820 5815 5810 5803 5796 5786 5776 5767 5758 5747 5736 5729 5721 5712 5702 5691 5683 5675 5667 5653 5642 5634 5629 5622 5616 5608 5601 5590
5857 5855 5853 5851 5845 5841 5838 5837 5837 5835 5834 5834 5835 5829 5825 5817 5813 5808 5804 5794 5786 5778 5770 5761 5752 5740 5733 5725 5713 5703 5693 5683 5675 5669 5658 5648 5639 5630 5621 5617 5606 5596 5583
5856 5855 5855 5852 5847 5843 5841 5839 5839 5838 5836 5836 5834 5831 5826 5819 5812 5809 5804 5796 5785 5777 5770 5763 5755 5745 5738 5730 5719 5709 5697 5685 5677 5669 5662 5652 5643 5633 5622 5615 5603 5597 5587
5857 5856 5854 5852 5848 5846 5843 5841 5840 5838 5836 5835 5833 5829 5825 5822 5814 5809 5804 5795 5786 5777 5768 5760 5754 5748 5740 5733 5724 5712 5702 5693 5683 5675 5666 5656 5646 5634 5624 5614 5605 5596 5585
5855 5852 5850 5850 5849 5846 5843 5840 5839 5837 5834 5832 5828 5824 5822 5820 5815 5806 5803 5798 5789 5778 5766 5761 5755 5748 5741 5735 5725 5716 5708 5698 5687 5678 5670 5661 5650 5639 5629 5618 5608 5598 5587
5852 5848 5847 5846 5846 5845 5840 5836 5834 5835 5833 5830 5827 5824 5819 5816 5811 5805 5802 5796 5789 5777 5769 5761 5754 5749 5742 5735 5727 5720 5713 5701 5690 5682 5672 5667 5659 5647 5636 5624 5613 5601 5591
5845 5845 5847 5844 5841 5840 5840 5837 5835 5834 5833 5832 5828 5823 5820 5815 5810 5803 5798 5794 5788 5779 5769 5761 5752 5746 5741 5736 5728 5723 5716 5708 5698 5687 5680 5673 5664 5653 5644 5635 5622 5608 5597
5836 5840 5841 5841 5838 5836 5835 5832 5836 5839 5840 5837 5831 5828 5821 5815 5813 5808 5801 5794 5788 5780 5768 5758 5750 5742 5736 5732 5728 5723 5717 5710 5702 5694 5684 5677 5670 5662 5654 5645 5632 5620 5606
5824 5834 5837 5837 5835 5834 5827 5820 5819 5824 5830 5837 5835 5835 5829 5824 5815 5807 5800 5795 5788 5778 5768 5758 5749 5743 5736 5730 5726 5721 5718 5712 5704 5698 5689 5680 5670 5663 5656 5650 5641 5629 5615
5816 5822 5830 5830 5830 5829 5826 5824 5818 5814 5819 5825 5830 5830 5828 5821 5812 5804 5798 5789 5782 5778 5768 5758 5751 5744 5738 5733 5728 5724 5717 5713 5708 5701 5693 5685 5675 5666 5659 5653 5647 5637 5623
5807 5810 5816 5826 5827 5826 5823 5818 5816 5817 5817 5818 5814 5816 5815 5813 5808 5800 5791 5781 5772 5774 5769 5760 5752 5746 5742 5736 5730 5724 5718 5713 5708 5702 5696 5688 5680 5671 5660 5653 5651 5642 5632
5792 5797 5806 5815 5818 5816 5815 5814 5811 5812 5812 5808 5806 5803 5799 5799 5798 5795 5792 5788 5779 5773 5767 5762 5757 5750 5744 5738 5731 5726 5720 5713 5708 5703 5698 5693 5684 5675 5665 5658 5652 5649 5641
5779 5784 5787 5792 5787 5790 5797 5807 5805 5804 5800 5798 5799 5798 5792 5792 5789 5785 5790 5786 5781 5777 5775 5768 5762 5754 5746 5739 5731 5725 5718 5713 5707 5704 5698 5695 5688 5680 5670 5663 5657 5651 5646
5761 5774 5784 5777 5764 5757 5769 5765 5765 5777 5788 5783 5781 5784 5786 5787 5783 5782 5781 5782 5781 5773 5770 5767 5764 5755 5747 5741 5732 5725 5719 5713 5708 5703 5698 5695 5692 5684 5675 5668 5663 5657 5649
5741 5762 5777 5740 5749 5744 5738 5747 5730 5745 5762 5769 5769 5770 5771 5776 5774 5774 5772 5771 5773 5772 5767 5762 5759 5756 5749 5740 5730 5726 5720 5714 5708 5703 5699 5696 5692 5688 5680 5673 5667 5663 5656
5726 5737 5723 5729 5729 5725 5727 5729 5729 5741 5745 5753 5755 5760 5762 5761 5764 5763 5762 5763 5767 5769 5764 5757 5753 5748 5745 5742 5736 5729 5722 5717 5712 5707 5701 5697 5692 5691 5686 5678 5671 5666 5664
5706 5708 5710 5714 5718 5714 5719 5716 5716 5723 5735 5741 5748 5735 5745 5747 5751 5755 5754 5758 5763 5764 5762 5756 5749 5744 5742 5737 5735 5728 5723 5719 5715 5709 5703 5697 5693 5691 5689 5682 5675 5671 5667
5681 5687 5690 5694 5696 5696 5701 5701 5696 5704 5712 5728 5725 5717 5712 5723 5730 5739 5745 5751 5756 5757 5757 5754 5747 5742 5738 5734 5731 5729 5724 5719 5715 5712 5706 5700 5695 5691 5690 5687 5682 5675 5669
5662 5666 5670 5671 5674 5676 5681 5685 5687 5696 5699 5704 5684 5687 5696 5700 5703 5710 5718 5730 5743 5751 5750 5748 5746 5740 5736 5732 5729 5727 5723 5719 5714 5712 5709 5703 5697 5692 5689 5687 5684 5680 5676